TimeEST,TemperatureF,Dew PointF,Humidity,Sea Level PressureIn,VisibilityMPH,Wind Direction,Wind SpeedMPH,Gust SpeedMPH,PrecipitationIn,Events,Conditions,WindDirDegrees,DateUTC
12:53 AM,64.9,57.9,78,29.88,10.0,SW,13.8,-,N/A,,Mostly Cloudy,220,2013-03-06 05:53:00
1:18 AM,66.2,59.0,78,29.88,10.0,SW,18.4,-,0.00,Rain,Light Rain,230,2013-03-06 06:18:00
1:26 AM,64.4,60.8,88,29.90,5.0,West,13.8,-,0.04,Rain,Light Rain,260,2013-03-06 06:26:00
1:41 AM,62.6,59.0,88,29.90,10.0,West,17.3,27.6,0.05,,Overcast,260,2013-03-06 06:41:00
1:46 AM,62.6,57.2,82,29.90,10.0,West,15.0,25.3,0.05,Rain,Light Rain,270,2013-03-06 06:46:00
1:53 AM,62.1,57.9,86,29.90,8.0,West,19.6,31.1,0.05,Rain,Light Rain,280,2013-03-06 06:53:00
2:03 AM,60.8,55.4,82,29.91,10.0,WNW,15.0,24.2,0.00,,Scattered Clouds,300,2013-03-06 07:03:00
2:53 AM,57.9,55.0,90,29.90,10.0,WNW,9.2,-,0.00,,Scattered Clouds,300,2013-03-06 07:53:00
3:53 AM,52.0,37.0,57,29.94,10.0,WNW,21.9,36.8,N/A,,Partly Cloudy,290,2013-03-06 08:53:00
4:53 AM,46.9,34.0,61,29.99,10.0,WNW,17.3,28.8,N/A,,Partly Cloudy,300,2013-03-06 09:53:00
5:53 AM,46.0,30.9,56,30.01,10.0,WNW,15.0,21.9,N/A,,Partly Cloudy,300,2013-03-06 10:53:00
6:53 AM,45.0,30.9,58,30.02,10.0,WNW,15.0,25.3,N/A,,Partly Cloudy,290,2013-03-06 11:53:00
7:53 AM,45.0,32.0,60,30.04,10.0,WNW,10.4,-,N/A,,Clear,300,2013-03-06 12:53:00
8:53 AM,46.9,28.0,48,30.05,10.0,WNW,12.7,29.9,N/A,,Clear,300,2013-03-06 13:53:00
9:53 AM,48.9,25.0,39,30.05,10.0,WNW,19.6,31.1,N/A,,Clear,290,2013-03-06 14:53:00
10:53 AM,51.1,26.1,38,30.04,10.0,West,13.8,23.0,N/A,,Clear,280,2013-03-06 15:53:00
11:53 AM,53.1,25.0,34,30.04,10.0,WNW,18.4,25.3,N/A,,Clear,300,2013-03-06 16:53:00
12:53 PM,55.0,24.1,30,30.01,10.0,West,16.1,26.5,N/A,,Clear,280,2013-03-06 17:53:00
1:53 PM,57.0,24.1,28,29.98,10.0,WNW,12.7,23.0,N/A,,Clear,300,2013-03-06 18:53:00
2:53 PM,59.0,24.1,26,29.96,10.0,WNW,19.6,26.5,N/A,,Clear,290,2013-03-06 19:53:00
3:53 PM,57.9,26.1,30,29.96,10.0,West,15.0,27.6,N/A,,Clear,280,2013-03-06 20:53:00
4:53 PM,57.0,27.0,32,29.99,10.0,WNW,17.3,25.3,N/A,,Clear,300,2013-03-06 21:53:00
5:53 PM,55.0,28.0,35,30.01,10.0,NW,16.1,25.3,N/A,,Clear,310,2013-03-06 22:53:00
6:53 PM,52.0,28.0,40,30.05,10.0,NW,10.4,-,N/A,,Clear,310,2013-03-06 23:53:00
7:53 PM,51.1,28.9,43,30.08,10.0,NW,10.4,-,N/A,,Clear,310,2013-03-07 00:53:00
8:53 PM,48.9,30.0,48,30.11,10.0,NW,5.8,-,N/A,,Clear,310,2013-03-07 01:53:00
9:53 PM,48.0,30.9,52,30.13,10.0,NW,10.4,-,N/A,,Clear,310,2013-03-07 02:53:00
10:53 PM,46.9,30.9,54,30.14,10.0,NW,6.9,-,N/A,,Clear,320,2013-03-07 03:53:00
11:53 PM,46.0,30.9,56,30.14,10.0,NNW,16.1,-,N/A,,Clear,330,2013-03-07 04:53:00